Location: Ffald-y-Brenin
(52.0833°N, 4.0000°W)
Time: 08:07:30
(UTC+00:00)

Cosmos 1869 - Pass Details

Date: 18 February 2020
Orbit: 524 x 559 km, 82.5° (Epoch: 30 March)

Event Time Altitude Azimuth Distance (km) Brightness Sun altitude
Rises 05:50:07 0° 192° (SSW) 2,712 6.7 -15.4°
Reaches altitude 10° 05:52:17 10° 193° (SSW) 1,818 5.8 -15.1°
Maximum altitude 05:56:17 79° 281° (WNW) 560 3.2 -14.5°
Drops below altitude 10° 06:00:16 10° 9° (N) 1,813 6.0 -13.8°
Sets 06:02:26 0° 10° (N) 2,704 7.0 -13.5°
